Weather in Uygat

Russia / Irkutsk Oblast     54°04′53″N   100°35′41″E
temp.,
°C
wind,
m/s
gust,
m/s
humid.,
%
clouds,
%
prec.,
mm/h
press.,
hPa
HPBL,
m
4 march, thu
thu423:00−20nne1298100 0.1 102720
02:00−23ne1199100 0.1 102920
05:00−25e129998 0.0 103120
08:00−25ese129899 0.1 103428
11:00−20ese2396100 0.1 1033223
14:00−14ese2390100 0.1 1032297
17:00−12ese359298 0.0 1031311
20:00−16ese379783 0.0 1034148
5 march, fri
fri523:00−19ese249743 0.0 103472
02:00−19se239622 0.0 103355
05:00−20ese239211 0.0 103139
08:00−20ese239123 0.0 103038
11:00−13e238826 0.0 1027142
14:00−8ese359163 0.0 1023263
17:00−7ese379494 0.0 1020274
20:00−12ese239795 0.0 102259
6 march, sat
sat623:00−11se2294100 0.0 102228
02:00−8nne1187100 0.0 102421
05:00−8ssw118280 0.0 102521
08:00−9ssw018090 0.0 102721
11:00−2sw1779100 0.0 1025495
14:00+1s1797100 0.0 10221151
17:00+1ssw2690100 0.1 1020292
20:00−3wsw2380100 0.1 102256
7 march, sun
sun723:00−7wnw119299 0.0 102221
02:00−7se128999 0.0 102121
05:00−8s1185100 0.0 102121
08:00−9ssw1182100 0.0 102121
11:00−2sse118153 0.0 1019128
14:00+1se2310065 0.0 1017127
17:00+2wsw2693100 0.0 1017183
20:00−4nne129596 0.0 102026
8 march, mon
mon823:00−4s1291100 0.0 102221
02:00−5se238996 0.0 102330
05:00−7se238737 0.0 102250
08:00−7sse228758 0.0 102241
11:00−2sse1181100 0.0 1019108
14:00+1se2496100 0.0 1017182
17:00+2se24100100 0.0 1016109
20:00−1sse239683 0.0 101842